SCP
0 0 0 0 0 0 0 0 0 0 0 0 0 0 0 0 0 0 0 0 0 0
0 0 0 0 0 0 0 0 0 0 0 0 0 0 0 0 0 0 0 0 0 0
0 0 0 0 0 0 0 0 0 0 0 0 0 0 0 0 0 0 0 0 0 0
0 0 0 0 0 0 0 0 0 0 0 0 0 0 0 0 0 0 0 0 0 0
0 0 0 0 0 0 0 0 0 0 0 0 0 0 0 0 0 0 0 0 0 0
0 0 0 0 0 0 0 0 0 0 0 0 0 0 0 0 0 0 0 0 0 0
0 0 0 0 0 -0 -0 0 0 0 0 0 0 0 0 0 0 0 0 0 0 0
-0 -0 -0 0 0 0 0 0 0 0 0 0 0 0 0 0 0 0 0 0 0 0
0 0 0 0 0 0 0 0 0 0 0 0 0 0 0 0 0 0 0 0 0 0
0 0 0 0 0 0 0 0 0 0 0 0 0 0 0 0 0 0 0 0 0 0
0 0 0 0 0 0 0 0 0 0 0 0 0 0 0 0 0 0 0 0 0 0
0 0 0 0 0 0 0 0 0 0 0 0 0 0 0 0 0 0 0 0 0 0
0 0 0 0 -0 0 0 0 0 0 0 0 0 0 0 0 0 0 0 0 0 0
0 0 0 0 0 0 0 0 0 0 0 0 0 0 0 0 0 0 0 0 0 0
Wind_Speed_500mb
38 38 30 28 27 25 24 16 17 12 13 13 7 12 20 28 30 32 32 26 25 30
36 37 34 29 26 24 24 22 20 17 11 7 13 23 29 28 33 36 34 30 33 29
30 32 28 32 29 22 18 17 17 15 14 16 25 27 28 31 31 33 32 35 33 27
24 31 30 31 30 25 23 22 23 18 19 24 30 24 31 37 33 31 41 38 34 32
25 22 14 20 28 29 26 21 20 18 22 25 28 33 34 30 31 43 34 33 32 28
38 24 20 19 25 23 17 14 19 23 26 31 35 33 30 30 37 29 29 28 29 29
36 28 21 14 15 15 12 20 22 27 30 31 31 30 29 33 25 24 23 23 27 29
25 31 29 26 21 23 25 26 31 29 28 29 30 29 28 25 23 19 21 24 26 31
37 34 34 33 32 28 28 29 31 26 27 31 28 26 24 22 19 19 25 30 30 33
24 26 29 31 35 27 29 27 24 25 27 26 24 21 20 22 21 25 31 37 43 43
8 7 8 12 14 16 20 20 23 27 26 24 17 19 23 28 29 32 37 41 46 50
26 9 11 12 14 16 18 22 24 25 25 23 20 22 28 33 37 42 44 44 45 49
4 10 21 19 22 21 22 26 28 24 23 27 30 29 32 39 44 47 47 43 43 45
4 14 12 21 19 17 21 26 22 25 22 27 30 32 37 37 43 47 47 41 39 43
Wind_Direction_500mb
235 241 241 236 236 244 252 262 249 254 272 291 288 312 308 313 310 301 300 296 296 292
234 235 237 240 245 255 251 261 255 267 278 245 286 299 300 292 301 299 299 295 303 292
246 231 230 243 243 253 251 247 258 269 267 274 292 288 298 295 301 297 297 293 293 281
279 250 247 250 244 243 242 246 257 265 261 283 291 289 295 301 306 297 302 295 290 287
278 249 268 264 248 250 251 252 262 259 280 286 286 287 298 296 298 304 298 293 285 284
274 252 253 267 253 241 235 232 242 269 281 281 290 285 292 296 305 301 302 300 292 288
261 264 244 243 239 213 214 248 262 284 277 277 277 282 296 305 303 307 313 314 304 291
239 254 236 223 224 234 239 252 277 285 290 279 275 288 301 302 301 311 324 329 322 300
254 248 246 244 242 256 257 268 282 275 282 291 283 290 300 302 293 316 323 332 330 322
267 260 254 261 264 264 270 277 272 291 300 295 286 289 301 302 297 304 313 322 327 326
254 233 304 311 297 289 281 276 291 309 303 291 284 280 294 298 301 305 308 311 317 318
305 337 37 7 322 290 289 301 299 298 294 285 286 287 288 292 298 303 302 302 307 314
41 10 346 336 335 312 307 304 295 291 288 283 279 280 285 290 296 299 305 305 308 314
341 330 344 329 324 316 310 313 307 297 287 288 288 288 298 299 296 298 300 301 309 319
Wind_Speed_850mb
38 38 30 28 27 25 24 16 17 12 13 13 7 12 20 28 30 32 32 26 25 30
36 37 34 29 26 24 24 22 20 17 11 7 13 23 29 28 33 36 34 30 33 29
30 32 28 32 29 22 18 17 17 15 14 16 25 27 28 31 31 33 32 35 33 27
24 31 30 31 30 25 23 22 23 18 19 24 30 24 31 37 33 31 41 38 34 32
25 22 14 20 28 29 26 21 20 18 22 25 28 33 34 30 31 43 34 33 32 28
38 24 20 19 25 23 17 14 19 23 26 31 35 33 30 30 37 29 29 28 29 29
36 28 21 14 15 15 12 20 22 27 30 31 31 30 29 33 25 24 23 23 27 29
25 31 29 26 21 23 25 26 31 29 28 29 30 29 28 25 23 19 21 24 26 31
37 34 34 33 32 28 28 29 31 26 27 31 28 26 24 22 19 19 25 30 30 33
24 26 29 31 35 27 29 27 24 25 27 26 24 21 20 22 21 25 31 37 43 43
8 7 8 12 14 16 20 20 23 27 26 24 17 19 23 28 29 32 37 41 46 50
26 9 11 12 14 16 18 22 24 25 25 23 20 22 28 33 37 42 44 44 45 49
4 10 21 19 22 21 22 26 28 24 23 27 30 29 32 39 44 47 47 43 43 45
4 14 12 21 19 17 21 26 22 25 22 27 30 32 37 37 43 47 47 41 39 43
Wind_Direction_850mb
235 241 241 236 236 244 252 262 249 254 272 291 288 312 308 313 310 301 300 296 296 292
234 235 237 240 245 255 251 261 255 267 278 245 286 299 300 292 301 299 299 295 303 292
246 231 230 243 243 253 251 247 258 269 267 274 292 288 298 295 301 297 297 293 293 281
279 250 247 250 244 243 242 246 257 265 261 283 291 289 295 301 306 297 302 295 290 287
278 249 268 264 248 250 251 252 262 259 280 286 286 287 298 296 298 304 298 293 285 284
274 252 253 267 253 241 235 232 242 269 281 281 290 285 292 296 305 301 302 300 292 288
261 264 244 243 239 213 214 248 262 284 277 277 277 282 296 305 303 307 313 314 304 291
239 254 236 223 224 234 239 252 277 285 290 279 275 288 301 302 301 311 324 329 322 300
254 248 246 244 242 256 257 268 282 275 282 291 283 290 300 302 293 316 323 332 330 322
267 260 254 261 264 264 270 277 272 291 300 295 286 289 301 302 297 304 313 322 327 326
254 233 304 311 297 289 281 276 291 309 303 291 284 280 294 298 301 305 308 311 317 318
305 337 37 7 322 290 289 301 299 298 294 285 286 287 288 292 298 303 302 302 307 314
41 10 346 336 335 312 307 304 295 291 288 283 279 280 285 290 296 299 305 305 308 314
341 330 344 329 324 316 310 313 307 297 287 288 288 288 298 299 296 298 300 301 309 319